Location: ??????
(55.6500°N, 37.8000°E)
Time: 06:36:43
(UTC+00:00)

Cosmos 2266 Rocket - Visible Passes

Search period start: 13 July 2024 00:00
Search period end: 23 July 2024 00:00
Orbit: 934 x 1007 km, 82.9° (Epoch: 12 July)

Date Brightness Start Highest point End Pass type
(mag) Time Alt. Az. Time Alt. Az. Time Alt. Az.
13 Jul 7.0 23:42:09 10° NNE 23:45:17 14° NE 23:48:23 10° ENE visible
15 Jul 6.7 00:05:27 10° N 00:09:54 20° NE 00:14:16 10° E visible
16 Jul 7.1 23:09:07 10° NNE 23:11:22 12° NE 23:13:37 10° ENE visible
17 Jul 6.7 23:32:07 10° N 23:36:03 17° NE 23:39:56 10° E visible
18 Jul 6.4 23:55:37 10° N 00:00:33 24° ENE 00:05:26 10° ESE visible
19 Jul 7.2 22:36:51 10° NNE 22:37:27 10° NE 22:38:02 10° NE visible
20 Jul 5.7 00:19:16 10° N 00:24:54 35° ENE 00:30:24 10° SE visible
20 Jul 6.8 22:58:53 10° NNE 23:02:11 15° NE 23:05:27 10° E visible
21 Jul 6.5 23:22:12 10° N 23:26:45 21° NE 23:31:13 10° ESE visible
22 Jul 5.9 23:45:48 10° N 23:51:09 30° ENE 23:56:25 10° ESE visible
